Miscellaneous Local Product
Issued by NWS Hastings, NE

Home | Current Version | Previous Version | Text Only | Print | Product List | Glossary Off
Versions: 1 2 3 4 5 6 7 8 9 10 11 12 13 14 15 16 17 18 19 20 21 22 23 24 25 26 27 28 29 30 31 32 33 34 35 36 37 38 39 40 41 42 43 44 45 46 47 48 49 50

000
AXUS43 KGID 202302
MISGRI

GID CWA HOURLY WEATHER ROUNDUP
NATIONAL WEATHER SERVICE HASTINGS NE
600 PM CDT WED SEP 20 2017

NOTE: "FAIR" INDICATES FEW OR NO CLOUDS BELOW 12,000 FEET WITH NO
SIGNIFICANT WEATHER AND/OR OBSTRUCTIONS TO VISIBILITY.

...SOUTH CENTRAL NEBRASKA...

CITY           SKY/WX    TMP DP  RH WIND       PRES   REMARKS
GRAND ISLAND   SUNNY     77  42  28 MISG      29.87F
HASTINGS       SUNNY     78  41  26 NE6       29.87F
KEARNEY        SUNNY     77  41  27 E9        29.87F
ORD            SUNNY     76  38  25 S5        29.86S
YORK           SUNNY     77  41  27 NE5       29.87S
AURORA         SUNNY     76  44  32 E6        29.87S
LEXINGTON      SUNNY     79  37  22 SE8       29.88R HAZE
HOLDREGE       SUNNY     76  37  23 E6        29.87S
HEBRON         SUNNY     83  48  29 NE9       29.84R

...NEBRASKA PANHANDLE...

CITY           SKY/WX    TMP DP  RH WIND       PRES   REMARKS
CHADRON        SUNNY     77  33  20 SW23G30   29.78R
ALLIANCE       SUNNY     72  34  24 S17G25    29.84F
SCOTTSBLUFF    SUNNY     77  33  20 S10       29.81F
SIDNEY         SUNNY     74  28  18 S20G32    29.87F

...WESTERN AND NORTH CENTRAL NEBRASKA...

CITY           SKY/WX    TMP DP  RH WIND       PRES   REMARKS
VALENTINE      SUNNY     77  29  17 SW8       29.83R
AINSWORTH      SUNNY     74  35  24 SW8       29.86R
ONEILL         SUNNY     75  41  29 S5        29.87R
BROKEN BOW     SUNNY     77  40  26 SE8       29.87S
IMPERIAL       SUNNY     77  24  14 S15       29.88S
NORTH PLATTE   SUNNY     77  38  24 E8        29.87S
MCCOOK         SUNNY     80  33  18 SE10      29.86F

...EASTERN NEBRASKA...

CITY           SKY/WX    TMP DP  RH WIND       PRES   REMARKS
NORFOLK        SUNNY     75  43  31 E6        29.86R
SO SIOUX CITY  SUNNY     74  49  41 NE6       29.86S
TEKAMAH        SUNNY     77  47  34 N5        29.85S
COLUMBUS       SUNNY     77  44  30 NE5       29.87R
ALBION         SUNNY     75  49  41 SE5       29.88R
OMAHA EPPLEY   SUNNY     79  51  37 NE9       29.84S
OFFUTT AFB     SUNNY     78  54  42 N7        29.84S
MILLARD        SUNNY     79  55  43 NE3       29.85S
LINCOLN        SUNNY     80  51  36 NE10      29.86R
NEBRASKA CITY  SUNNY     80  60  50 N9        29.84R
BEATRICE       SUNNY     81  56  42 NE8       29.85R
FALLS CITY     SUNNY     83  64  52 N6        29.81R

...NORTHERN KANSAS...

CITY           SKY/WX    TMP DP  RH WIND       PRES   REMARKS
GOODLAND       SUNNY     77  31  18 SE16      29.89S
HILL CITY      SUNNY     83  32  16 E14       29.86S
NORTON         CLEAR     79  27  14 E7        29.86S
PHILLIPSBURG   SUNNY     84  30  14 E9        29.85S
SMITH CENTER   SUNNY     81  39  22 NE7       29.85S
HAYS           SUNNY     84  42  22 E13       29.83F
RUSSELL        SUNNY     85  45  24 NE12      29.82S
CONCORDIA      SUNNY     82  56  40 NE9       29.82S
SALINA         SUNNY     87  56  34 CALM      29.80S
TOPEKA         CLOUDY    88  71  57 S6        29.79R HX  94



USA.gov is the U.S. government's official web portal to all federal, state and local government web resources and services.